BREEZE-M DEB, 38578

Orbit data source: Space-Track

BREEZE-M DEB, 38578 is space debris in HEO originally from a launch on Fri, 14 Mar 2008 UTC launched from the Tyuratam Missile And Space Complex (TTMTR). Debris objects in space refer to the collection of defunct objects orbiting the Earth. Examples of debris include non-operational satellites, rocket bodies, and fragments generated from explosions, collisions, or faulty payload assembly.

Loading next visibility...
Identifier
38578, 2008-011Z
Orbit
HEO
Country
Flag of CISCIS
Related business
Manufacturer
Unknown
Mission
Spacecraft
Bus & Motor
Unknown
Mass
Unknown
Launch date (UTC)
2008-03-14 (18 years ago)
Launch vehicle
Unknown
Launch site
Tyuratam Missile And Space Complex (TTMTR)
Object type
Payload
Rocket body
Debris
Shape & HBR
Unknown shape, 0.2 m
Radar Cross Section
Medium (>0.1 m² and <1 m²)

Expand to show TLE details & history
Last TLE update: 1 week ago

TLE from 1 week ago
0 BREEZE-M DEB
1 38578U 08011Z   26164.66436095  .00000086  00000-0  46455-3 0  9990
2 38578  47.6348 304.4674 6489757  52.8430 350.3979  3.13559871 49147
Epoch: 2026-06-13T15:56Z
TLE epoch observation values (Epoch: 2026-06-13T15:56:40.786Z)
Latitude
-0.00013°
Longitude
163.29052°
Altitude
1,830.049 km
Speed
8.77 km/s
True Right ascension
20h 17m 44s
True Declination
0° 00' 00"
Sunlit
Object was in full shadow at epoch
Visualization orbit readout
Latitude
Unknown
Longitude
Unknown
Altitude
Unknown
Speed
Unknown
Apparent Right ascension
Unknown
Apparent Declination
Unknown
Sunlit
N/A
Visualization observer readout
Local Sidereal Time
03:30:35
Azimuth
Unknown
Elevation
Unknown
Doppler factor
Unknown
Orbital elements
Apogee altitude
26,137.301 km
Perigee altitude
543.559 km
Semi-major axis
19,718.567 km
Eccentricity
0.64898
Inclination
47.6348°
RAAN
304.4674°
Arg. of periapsis
52.843°
True anomaly
307.26403°
Mean anomaly
350.3979°
Eccentric anomaly
334.23478°
Mean motion
0.78384 °/min
Orbital period
459.27 mins
BSTAR
0.00046455
Loading maneuver chart data...
Computing Atmospheric mass density...
Loading historical data...
Loading historical data...
Loading historical data...
Loading historical data...
Loading historical data...
Loading historical data...
Loading historical data...

Documentation

Showing up to 5 results
|